Flag for Brazil Weather past 2 weeks in Rio Grande, Rio Grande do Sul, Brazil

Now
64 °F

Passing clouds.


Feels Like: 64 °F
Forecast: 59 / 66 °F
Wind: No wind

Location: Pelotas Airport

Current Time: May 29, 2015 at 4:09:04 PM

Latest Report: May 29, 2015 at 3:00 PM


Visibility: N/A

Pressure: 29.98 "Hg

Humidity: 88%

Dew point: 61 °F

Location of Rio GrandeLocation

Historic Weather in Rio Grande — Graph

°F

Rio Grande temperature yesterday

Maximum temperature yesterday: 63 °F (at 11:00 AM)
Minimum temperature yesterday: 55 °F (at 10:00 PM)
Average temperature yesterday: 59 °F

Past Weeks' High & Low Weather Summary

 TemperatureHumidityPressure
High86 °F (May 22, 1:00 PM)100% (May 14, 7:00 PM)30.27 "Hg (May 14, 7:00 PM)
Low54 °F (May 26, 6:00 AM)51% (May 21, 2:00 PM)29.68 "Hg (May 23, 4:00 PM)
Average66 °F91%30.10 "Hg
* Reported May 14 3:00 PM — May 29 3:00 PM, Rio Grande, Weather by CustomWeather, © 2015

Note: Actual official high and low records may vary slightly from our data, if they occured in-between our weather recording intervals... More about our weather records

Advertising

Rio Grande weather history for previous 24 hours

 ConditionsComfort  
Time TempWeatherWind HumidityBarometerVisibility
3:00 PM
Fri, May 29
64 °FPassing clouds.No wind88%29.98 "HgN/A
2:00 PM63 °FBroken clouds.5 mph100%29.98 "HgN/A
1:00 PM63 °FBroken clouds.2 mph100%30.01 "HgN/A
12:00 PM57 °FDrizzle. Mostly cloudy.3 mph100%30.04 "Hg5 mi
11:00 AM57 °FMostly cloudy.5 mph100%30.07 "Hg6 mi
10:00 AM55 °FFog.6 mph100%30.07 "Hg3 mi
9:00 AM55 °FFog.5 mph100%30.04 "Hg1 mi
8:00 AM54 °FFog.5 mph100%30.04 "Hg0 mi
7:00 AM54 °FFog.6 mph100%30.01 "Hg1 mi
6:00 AM54 °FFog.9 mph100%30.01 "Hg2 mi
11:00 PM
Thu, May 28
55 °FMostly cloudy.2 mph100%30.07 "HgN/A
10:00 PM55 °FLight rain. Mostly cloudy.6 mph100%30.07 "HgN/A
9:00 PM57 °FPartly cloudy.7 mph100%30.07 "HgN/A
8:00 PM57 °FPartly cloudy.3 mph100%30.07 "HgN/A
7:00 PM59 °FMostly cloudy.5 mph100%30.04 "HgN/A
6:00 PM59 °FMostly cloudy.5 mph100%30.04 "HgN/A
5:00 PM61 °FOvercast.8 mph100%30.04 "HgN/A
4:00 PM63 °FMostly cloudy.6 mph100%30.04 "HgN/A
Weather by CustomWeather, © 2015

See weather overviewHow to use our weather pages